{"data":{"norad_id":64160,"intl_designator":"2025-112Q","name":"STARLINK-34339","alt_names":[],"object_type":"PAYLOAD","status":"ACTIVE","operator":null,"country":"US","launch_date":"2025-05-27","launch_site_code":"AFWTR","launch_vehicle":null,"mission":null,"orbit_class":"UNKNOWN","rcs_meters":null,"size_class":null,"mass_kg":null,"dimensions":null,"purposes":["comms"],"wikipedia_slug":null,"has_3d_model":false,"image_url":null,"decayed_at":null,"tle_current":{"epoch":"2026-09-20T14:09:15.841152Z","epoch_age_seconds":132706,"freshness":"FRESH","line1":"1 64160U 25112Q   26263.58976668  .00017570  00000+0  54541-3 0  9993","line2":"2 64160  97.2855 310.6865 0001348  90.7627 269.3770 15.33437435 72765","mean_motion":15.33437435,"eccentricity":0.0001348,"inclination_deg":97.2855,"raan_deg":310.6865,"arg_perigee_deg":90.7627,"mean_anomaly_deg":269.377,"bstar":0.00054541,"rev_number":7276,"period_min":93.906667930016,"perigee_km":464.64315156661,"apogee_km":466.48821380986,"semimajor_km":6843.7026826882,"source":"CELESTRAK","updated_at":"2026-09-21T09:00:35.240260Z"}}}